,,PA_Meas_PMT16A,,PR_Meas_QMR101_102,,RH_Meas_QMH101,,SR_Meas_QMS101,,TA_Meas_QMH101,,GenWind,,GenWind,
time,status,PA,status,PR,status,RH,status,SR,status,TA,status,DirAvg,status,SpdAvg,
2012-10-05, 00:00:04,VALID,918.318,VALID,0,VALID,97.2214,VALID,0,VALID,19.5483,VALID,83,VALID,0,
2012-10-05, 00:01:04,VALID,918.314,VALID,0,VALID,97.1909,VALID,0,VALID,19.5288,VALID,83,VALID,0,
2012-10-05, 00:02:04,VALID,918.292,VALID,0,VALID,97.2138,VALID,0,VALID,19.5498,VALID,83,VALID,0,
2012-10-05, 00:03:04,VALID,918.289,VALID,0,VALID,97.2138,VALID,0,VALID,19.5093,VALID,83,VALID,0,
2012-10-05, 00:04:04,VALID,918.315,VALID,0,VALID,97.1986,VALID,0,VALID,19.5483,VALID,83,VALID,0,
2012-10-05, 00:05:04,VALID,918.247,VALID,0,VALID,97.2367,VALID,0.107441,VALID,19.5873,VALID,83,VALID,0,
2012-10-05, 00:06:04,VALID,918.233,VALID,0,VALID,97.2519,VALID,0.107441,VALID,19.6068,VALID,83,VALID,0,
2012-10-05, 00:07:04,VALID,918.221,VALID,0,VALID,97.229,VALID,0,VALID,19.6263,VALID,83,VALID,0,
2012-10-05, 00:08:04,VALID,918.198,VALID,0,VALID,97.2519,VALID,0.107441,VALID,19.6263,VALID,83,VALID,0,
2012-10-05, 00:09:04,VALID,918.217,VALID,0,VALID,97.2519,VALID,0,VALID,19.6263,VALID,83,VALID,0,
2012-10-05, 00:10:04,VALID,918.225,VALID,0,VALID,97.2672,VALID,0,VALID,19.6068,VALID,83,VALID,0,
2012-10-05, 00:11:04,VALID,918.211,VALID,0,VALID,97.2519,VALID,0.107441,VALID,19.6083,VALID,83,VALID,0,
2012-10-05, 00:12:04,VALID,918.167,VALID,0,VALID,97.2443,VALID,0.107441,VALID,19.5873,VALID,84,VALID,0,
2012-10-05, 00:13:04,VALID,918.142,VALID,0,VALID,97.2519,VALID,0,VALID,19.5873,VALID,83,VALID,0,
2012-10-05, 00:14:04,VALID,918.124,VALID,0,VALID,97.2748,VALID,0,VALID,19.5873,VALID,83,VALID,0,
2012-10-05, 00:15:04,VALID,918.096,VALID,0,VALID,97.2519,VALID,0,VALID,19.5873,VALID,83,VALID,0,
2012-10-05, 00:16:04,VALID,918.093,VALID,0,VALID,97.29,VALID,0,VALID,19.5873,VALID,83,VALID,0,
2012-10-05, 00:17:04,VALID,918.056,VALID,0,VALID,97.2367,VALID,0.107441,VALID,19.5483,VALID,83,VALID,0,
2012-10-05, 00:18:04,VALID,918.053,VALID,0,VALID,97.2672,VALID,0,VALID,19.5093,VALID,83,VALID,0,
2012-10-05, 00:19:04,VALID,917.993,VALID,0,VALID,97.2824,VALID,0,VALID,19.4508,VALID,84,VALID,0,
2012-10-05, 00:20:04,VALID,917.957,VALID,0,VALID,97.2367,VALID,0.107441,VALID,19.4313,VALID,84,VALID,0,
2012-10-05, 00:21:04,VALID,917.892,VALID,0,VALID,97.2595,VALID,0,VALID,19.4118,VALID,73,VALID,0,
2012-10-05, 00:22:04,VALID,917.854,VALID,0,VALID,97.29,VALID,0,VALID,19.4313,VALID,73,VALID,0,
2012-10-05, 00:23:04,VALID,917.882,VALID,0,VALID,97.29,VALID,0,VALID,19.4118,VALID,29,VALID,0,
2012-10-05, 00:24:04,VALID,917.869,VALID,0,VALID,97.2824,VALID,0,VALID,19.4327,VALID,29,VALID,0,
2012-10-05, 00:25:04,VALID,917.881,VALID,0,VALID,97.2748,VALID,0.107441,VALID,19.3923,VALID,30,VALID,0,
2012-10-05, 00:26:04,VALID,917.861,VALID,0,VALID,97.3129,VALID,0,VALID,19.3742,VALID,29,VALID,0,
2012-10-05, 00:27:04,VALID,917.912,VALID,0,VALID,97.2977,VALID,0.107441,VALID,19.3533,VALID,29,VALID,0,
2012-10-05, 00:28:04,VALID,917.944,VALID,0,VALID,97.3053,VALID,0,VALID,19.3338,VALID,29,VALID,0,
2012-10-05, 00:29:04,VALID,917.991,VALID,0,VALID,97.3053,VALID,0,VALID,19.3533,VALID,29,VALID,0,
2012-10-05, 00:30:04,VALID,917.972,VALID,0,VALID,97.3281,VALID,0.107441,VALID,19.3338,VALID,29,VALID,0,
2012-10-05, 00:31:04,VALID,917.975,VALID,0,VALID,97.3205,VALID,0.107441,VALID,19.3728,VALID,29,VALID,0,
2012-10-05, 00:32:04,VALID,917.943,VALID,0,VALID,97.3281,VALID,0.107441,VALID,19.3533,VALID,117,VALID,0,
2012-10-05, 00:33:04,VALID,917.926,VALID,0,VALID,97.3205,VALID,0,VALID,19.2948,VALID,98,VALID,0,
2012-10-05, 00:34:04,VALID,917.882,VALID,0,VALID,97.3205,VALID,0,VALID,19.2363,VALID,98,VALID,0,
2012-10-05, 00:35:04,VALID,917.914,VALID,0,VALID,97.3129,VALID,0,VALID,19.2377,VALID,85,VALID,0,
2012-10-05, 00:36:04,VALID,917.923,VALID,0,VALID,97.3205,VALID,0.107441,VALID,19.1973,VALID,85,VALID,0,
2012-10-05, 00:37:04,VALID,917.918,VALID,0,VALID,97.3434,VALID,0.107441,VALID,19.2168,VALID,86,VALID,0,
2012-10-05, 00:38:04,VALID,917.94,VALID,0,VALID,97.3281,VALID,0,VALID,19.2168,VALID,86,VALID,0,
2012-10-05, 00:39:04,VALID,917.89,VALID,0,VALID,97.3358,VALID,0.107441,VALID,19.2168,VALID,85,VALID,0,
2012-10-05, 00:40:04,VALID,917.874,VALID,0,VALID,97.351,VALID,0.107441,VALID,19.2168,VALID,85,VALID,0,
2012-10-05, 00:41:04,VALID,917.879,VALID,0,VALID,97.3586,VALID,0,VALID,19.2182,VALID,85,VALID,0,
2012-10-05, 00:42:04,VALID,917.843,VALID,0,VALID,97.3739,VALID,0.107441,VALID,19.1973,VALID,85,VALID,0,
2012-10-05, 00:43:04,VALID,917.87,VALID,0,VALID,97.3891,VALID,0.107441,VALID,19.1973,VALID,86,VALID,0,
2012-10-05, 00:44:04,VALID,917.879,VALID,0,VALID,97.3739,VALID,0.107441,VALID,19.1778,VALID,85,VALID,0,
2012-10-05, 00:45:04,VALID,917.921,VALID,0,VALID,97.3968,VALID,0,VALID,19.1987,VALID,85,VALID,0,
2012-10-05, 00:46:04,VALID,917.919,VALID,0,VALID,97.3815,VALID,0,VALID,19.1792,VALID,85,VALID,0,
2012-10-05, 00:47:04,VALID,917.956,VALID,0,VALID,97.3891,VALID,0,VALID,19.1973,VALID,85,VALID,0,
2012-10-05, 00:48:04,VALID,917.929,VALID,0,VALID,97.3663,VALID,0,VALID,19.1987,VALID,85,VALID,0,
2012-10-05, 00:49:04,VALID,917.917,VALID,0,VALID,97.3891,VALID,0,VALID,19.1987,VALID,86,VALID,0,
2012-10-05, 00:50:04,VALID,917.866,VALID,0,VALID,97.3891,VALID,0,VALID,19.1987,VALID,86,VALID,0,
2012-10-05, 00:51:04,VALID,917.868,VALID,0,VALID,97.4044,VALID,0,VALID,19.2197,VALID,86,VALID,0,
2012-10-05, 00:52:04,VALID,917.878,VALID,0,VALID,97.412,VALID,0,VALID,19.1597,VALID,85,VALID,0,
2012-10-05, 00:53:04,VALID,917.873,VALID,0,VALID,97.412,VALID,0,VALID,19.1597,VALID,86,VALID,0,
2012-10-05, 00:54:04,VALID,917.848,VALID,0,VALID,97.4044,VALID,0,VALID,19.2002,VALID,86,VALID,0,
2012-10-05, 00:55:04,VALID,917.828,VALID,0,VALID,97.4196,VALID,0,VALID,19.1792,VALID,201,VALID,0,
2012-10-05, 00:56:04,VALID,917.84,VALID,0,VALID,97.412,VALID,0,VALID,19.2182,VALID,201,VALID,0,
2012-10-05, 00:57:04,VALID,917.829,VALID,0,VALID,97.4273,VALID,0,VALID,19.2377,VALID,201,VALID,0,
2012-10-05, 00:58:04,VALID,917.806,VALID,0,VALID,97.4196,VALID,0,VALID,19.2182,VALID,201,VALID,0,
2012-10-05, 00:59:04,VALID,917.769,VALID,0,VALID,97.4425,VALID,0,VALID,19.2182,VALID,44,VALID,0,
2012-10-05, 01:00:04,VALID,917.762,VALID,0,VALID,97.4196,VALID,0,VALID,19.2392,VALID,36,VALID,0,
2012-10-05, 01:01:04,VALID,917.781,VALID,0,VALID,97.4349,VALID,0,VALID,19.2182,VALID,42,VALID,0,
2012-10-05, 01:02:04,VALID,917.804,VALID,0,VALID,97.4349,VALID,0,VALID,19.2197,VALID,47,VALID,0,
2012-10-05, 01:03:04,VALID,917.864,VALID,0,VALID,97.4654,VALID,0,VALID,19.2182,VALID,47,VALID,0,
2012-10-05, 01:04:04,VALID,917.882,VALID,0,VALID,97.4501,VALID,0,VALID,19.2377,VALID,235,VALID,0,
2012-10-05, 01:05:04,VALID,917.907,VALID,0,VALID,97.4273,VALID,0,VALID,19.2168,VALID,235,VALID,0,
2012-10-05, 01:06:04,VALID,917.936,VALID,0,VALID,97.4577,VALID,0,VALID,19.2782,VALID,235,VALID,0,
2012-10-05, 01:07:04,VALID,917.952,VALID,0,VALID,97.4654,VALID,0,VALID,19.2767,VALID,251,VALID,0,
2012-10-05, 01:08:04,VALID,917.927,VALID,0,VALID,97.4425,VALID,0,VALID,19.2767,VALID,251,VALID,0,
2012-10-05, 01:09:05,VALID,917.92,VALID,0,VALID,97.4501,VALID,0,VALID,19.2962,VALID,251,VALID,0,
2012-10-05, 01:10:05,VALID,917.906,VALID,0,VALID,97.4577,VALID,0,VALID,19.3157,VALID,250,VALID,0,
2012-10-05, 01:11:05,VALID,917.923,VALID,0,VALID,97.4654,VALID,0,VALID,19.2948,VALID,251,VALID,0,
2012-10-05, 01:12:05,VALID,917.92,VALID,0,VALID,97.4806,VALID,0,VALID,19.3547,VALID,251,VALID,0,
2012-10-05, 01:13:05,VALID,917.907,VALID,0,VALID,97.4577,VALID,0,VALID,19.3742,VALID,251,VALID,0,
2012-10-05, 01:14:05,VALID,917.895,VALID,0,VALID,97.4806,VALID,0,VALID,19.3728,VALID,251,VALID,0,
2012-10-05, 01:15:05,VALID,917.827,VALID,0,VALID,97.4501,VALID,0,VALID,19.3937,VALID,251,VALID,0,
2012-10-05, 01:16:05,VALID,917.804,VALID,0,VALID,97.4501,VALID,0,VALID,19.4132,VALID,251,VALID,0,
2012-10-05, 01:17:05,VALID,917.803,VALID,0,VALID,97.473,VALID,0,VALID,19.3937,VALID,251,VALID,0,
2012-10-05, 01:18:05,VALID,917.827,VALID,0,VALID,97.4654,VALID,0,VALID,19.3742,VALID,251,VALID,0,
2012-10-05, 01:19:05,VALID,917.843,VALID,0,VALID,97.4654,VALID,0,VALID,19.3742,VALID,251,VALID,0,
2012-10-05, 01:20:05,VALID,917.879,VALID,0,VALID,97.473,VALID,0,VALID,19.4147,VALID,251,VALID,0,
2012-10-05, 01:21:05,VALID,917.851,VALID,0,VALID,97.473,VALID,0,VALID,19.3742,VALID,251,VALID,0,
2012-10-05, 01:22:05,VALID,917.876,VALID,0,VALID,97.473,VALID,0,VALID,19.3937,VALID,251,VALID,0,
2012-10-05, 01:23:05,VALID,917.884,VALID,0,VALID,97.4882,VALID,0,VALID,19.3742,VALID,251,VALID,0,
2012-10-05, 01:24:05,VALID,917.855,VALID,0,VALID,97.4654,VALID,0,VALID,19.3742,VALID,251,VALID,0,
2012-10-05, 01:25:05,VALID,917.894,VALID,0,VALID,97.473,VALID,0,VALID,19.3742,VALID,251,VALID,0,
2012-10-05, 01:26:05,VALID,917.849,VALID,0,VALID,97.473,VALID,0,VALID,19.3937,VALID,251,VALID,0,
2012-10-05, 01:27:05,VALID,917.826,VALID,0,VALID,97.4959,VALID,0,VALID,19.3937,VALID,251,VALID,0,
2012-10-05, 01:28:05,VALID,917.791,VALID,0,VALID,97.4654,VALID,0,VALID,19.3952,VALID,251,VALID,0,
2012-10-05, 01:29:05,VALID,917.732,VALID,0,VALID,97.4959,VALID,0,VALID,19.3352,VALID,251,VALID,0,
2012-10-05, 01:30:05,VALID,917.725,VALID,0,VALID,97.4654,VALID,0,VALID,19.2962,VALID,173,VALID,0,
2012-10-05, 01:31:05,VALID,917.715,VALID,0,VALID,97.4959,VALID,0,VALID,19.2767,VALID,173,VALID,0,
2012-10-05, 01:32:05,VALID,917.72,VALID,0,VALID,97.4882,VALID,0,VALID,19.2767,VALID,173,VALID,0,
2012-10-05, 01:33:05,VALID,917.698,VALID,0,VALID,97.473,VALID,0,VALID,19.2962,VALID,173,VALID,0,
2012-10-05, 01:34:05,VALID,917.685,VALID,0,VALID,97.4882,VALID,0,VALID,19.2767,VALID,173,VALID,0,
2012-10-05, 01:35:05,VALID,917.676,VALID,0,VALID,97.5111,VALID,0,VALID,19.2782,VALID,173,VALID,0,
2012-10-05, 01:36:05,VALID,917.649,VALID,0,VALID,97.4959,VALID,0,VALID,19.2572,VALID,173,VALID,0,
2012-10-05, 01:37:05,VALID,917.635,VALID,0,VALID,97.5035,VALID,0,VALID,19.2182,VALID,173,VALID,0,
2012-10-05, 01:38:05,VALID,917.673,VALID,0,VALID,97.4959,VALID,0,VALID,19.1792,VALID,173,VALID,0,
2012-10-05, 01:39:05,VALID,917.673,VALID,0,VALID,97.5035,VALID,0,VALID,19.1792,VALID,173,VALID,0,
2012-10-05, 01:40:05,VALID,917.662,VALID,0,VALID,97.5111,VALID,0,VALID,19.1402,VALID,173,VALID,0,
2012-10-05, 01:41:05,VALID,917.611,VALID,0,VALID,97.4959,VALID,0,VALID,19.1402,VALID,173,VALID,0,
2012-10-05, 01:42:05,VALID,917.618,VALID,0,VALID,97.5111,VALID,0,VALID,19.0817,VALID,173,VALID,0,
2012-10-05, 01:43:05,VALID,917.632,VALID,0,VALID,97.5111,VALID,0,VALID,19.0817,VALID,173,VALID,0,
2012-10-05, 01:44:05,VALID,917.613,VALID,0,VALID,97.5264,VALID,0,VALID,19.0817,VALID,173,VALID,0,
2012-10-05, 01:45:05,VALID,917.59,VALID,0,VALID,97.5035,VALID,0,VALID,19.0817,VALID,173,VALID,0,
2012-10-05, 01:46:05,VALID,917.562,VALID,0,VALID,97.5264,VALID,0,VALID,19.1207,VALID,173,VALID,0,
2012-10-05, 01:47:05,VALID,917.573,VALID,0,VALID,97.5187,VALID,0,VALID,19.1012,VALID,173,VALID,0,
2012-10-05, 01:48:05,VALID,917.567,VALID,0,VALID,97.5416,VALID,0,VALID,19.1012,VALID,173,VALID,0,
2012-10-05, 01:49:05,VALID,917.536,VALID,0,VALID,97.5264,VALID,0,VALID,19.1012,VALID,173,VALID,0,
2012-10-05, 01:50:05,VALID,917.575,VALID,0,VALID,97.534,VALID,0,VALID,19.0622,VALID,173,VALID,0,
2012-10-05, 01:51:05,VALID,917.576,VALID,0,VALID,97.5416,VALID,0,VALID,19.0427,VALID,173,VALID,0,
2012-10-05, 01:52:05,VALID,917.578,VALID,0,VALID,97.5416,VALID,0,VALID,19.0037,VALID,173,VALID,0,
2012-10-05, 01:53:05,VALID,917.571,VALID,0,VALID,97.5111,VALID,0,VALID,18.9842,VALID,173,VALID,0,
2012-10-05, 01:54:05,VALID,917.595,VALID,0,VALID,97.5416,VALID,0,VALID,18.9647,VALID,173,VALID,0,
2012-10-05, 01:55:05,VALID,917.605,VALID,0,VALID,97.5492,VALID,0,VALID,18.9842,VALID,173,VALID,0,
2012-10-05, 01:56:05,VALID,917.579,VALID,0,VALID,97.5416,VALID,0,VALID,19.0037,VALID,173,VALID,0,
2012-10-05, 01:57:05,VALID,917.552,VALID,0,VALID,97.5569,VALID,0,VALID,19.0427,VALID,173,VALID,0,
2012-10-05, 01:58:05,VALID,917.512,VALID,0,VALID,97.5416,VALID,0,VALID,19.0427,VALID,173,VALID,0,
2012-10-05, 01:59:05,VALID,917.496,VALID,0,VALID,97.5645,VALID,0,VALID,19.0232,VALID,173,VALID,0,
2012-10-05, 02:00:05,VALID,917.487,VALID,0,VALID,97.5492,VALID,0,VALID,19.0232,VALID,173,VALID,0,
2012-10-05, 02:01:05,VALID,917.48,VALID,0,VALID,97.5569,VALID,0,VALID,19.0427,VALID,173,VALID,0,
2012-10-05, 02:02:05,VALID,917.455,VALID,0,VALID,97.5569,VALID,0,VALID,19.0218,VALID,173,VALID,0,
2012-10-05, 02:03:05,VALID,917.465,VALID,0,VALID,97.5492,VALID,0,VALID,19.0037,VALID,173,VALID,0,
2012-10-05, 02:04:05,VALID,917.461,VALID,0,VALID,97.5645,VALID,0,VALID,18.9842,VALID,173,VALID,0,
2012-10-05, 02:05:05,VALID,917.413,VALID,0,VALID,97.5797,VALID,0,VALID,18.9257,VALID,173,VALID,0,
2012-10-05, 02:06:05,VALID,917.389,VALID,0,VALID,97.5645,VALID,0,VALID,18.8867,VALID,173,VALID,0,
2012-10-05, 02:07:05,VALID,917.375,VALID,0,VALID,97.5569,VALID,0,VALID,18.8477,VALID,173,VALID,0,
2012-10-05, 02:08:05,VALID,917.398,VALID,0,VALID,97.5492,VALID,0,VALID,18.7892,VALID,173,VALID,0,
2012-10-05, 02:09:05,VALID,917.415,VALID,0,VALID,97.5721,VALID,0,VALID,18.8087,VALID,173,VALID,0,
2012-10-05, 02:10:05,VALID,917.45,VALID,0,VALID,97.5569,VALID,0,VALID,18.7892,VALID,173,VALID,0,
2012-10-05, 02:11:05,VALID,917.451,VALID,0,VALID,97.595,VALID,0,VALID,18.8087,VALID,173,VALID,0,
2012-10-05, 02:12:05,VALID,917.464,VALID,0,VALID,97.5492,VALID,0,VALID,18.8282,VALID,173,VALID,0,
2012-10-05, 02:13:05,VALID,917.456,VALID,0,VALID,97.5797,VALID,0,VALID,18.8477,VALID,173,VALID,0,
2012-10-05, 02:14:05,VALID,917.44,VALID,0,VALID,97.5873,VALID,0,VALID,18.8477,VALID,173,VALID,0,
2012-10-05, 02:15:05,VALID,917.441,VALID,0,VALID,97.6026,VALID,0,VALID,18.8672,VALID,173,VALID,0,
2012-10-05, 02:16:05,VALID,917.425,VALID,0,VALID,97.595,VALID,0,VALID,18.8867,VALID,173,VALID,0,
2012-10-05, 02:17:05,VALID,917.424,VALID,0,VALID,97.6026,VALID,0,VALID,18.9062,VALID,174,VALID,0,
2012-10-05, 02:18:05,VALID,917.424,VALID,0,VALID,97.6178,VALID,0,VALID,18.9257,VALID,173,VALID,0,
2012-10-05, 02:19:05,VALID,917.398,VALID,0,VALID,97.6026,VALID,0,VALID,18.9452,VALID,173,VALID,0,
2012-10-05, 02:20:05,VALID,917.395,VALID,0,VALID,97.5873,VALID,0,VALID,18.9452,VALID,173,VALID,0,
2012-10-05, 02:21:05,VALID,917.426,VALID,0,VALID,97.6178,VALID,0,VALID,18.9842,VALID,173,VALID,0,
2012-10-05, 02:22:05,VALID,917.438,VALID,0,VALID,97.6178,VALID,0,VALID,18.9842,VALID,174,VALID,0,
2012-10-05, 02:23:05,VALID,917.448,VALID,0,VALID,97.6102,VALID,0,VALID,19.0037,VALID,173,VALID,0,
2012-10-05, 02:24:05,VALID,917.486,VALID,0,VALID,97.6255,VALID,0,VALID,19.0037,VALID,174,VALID,0,
2012-10-05, 02:25:05,VALID,917.433,VALID,0,VALID,97.5873,VALID,0,VALID,19.0052,VALID,173,VALID,0,
2012-10-05, 02:26:05,VALID,917.464,VALID,0,VALID,97.5873,VALID,0,VALID,19.0037,VALID,174,VALID,0,
2012-10-05, 02:27:05,VALID,917.415,VALID,0,VALID,97.595,VALID,0,VALID,19.0037,VALID,174,VALID,0,
2012-10-05, 02:28:05,VALID,917.407,VALID,0,VALID,97.6026,VALID,0,VALID,18.9633,VALID,173,VALID,0,
2012-10-05, 02:29:05,VALID,917.341,VALID,0,VALID,97.6102,VALID,0,VALID,18.9647,VALID,173,VALID,0,
2012-10-05, 02:30:05,VALID,917.355,VALID,0,VALID,97.6102,VALID,0,VALID,18.9452,VALID,173,VALID,0,
2012-10-05, 02:31:05,VALID,917.334,VALID,0,VALID,97.6178,VALID,0,VALID,18.9438,VALID,173,VALID,0,
2012-10-05, 02:32:05,VALID,917.332,VALID,0,VALID,97.6026,VALID,0,VALID,18.9842,VALID,173,VALID,0,
2012-10-05, 02:33:05,VALID,917.326,VALID,0,VALID,97.6255,VALID,0,VALID,19.0037,VALID,173,VALID,0,
2012-10-05, 02:34:05,VALID,917.305,VALID,0,VALID,97.6255,VALID,0,VALID,19.0232,VALID,173,VALID,0,
2012-10-05, 02:35:05,VALID,917.31,VALID,0,VALID,97.6178,VALID,0,VALID,19.0427,VALID,173,VALID,0,
2012-10-05, 02:36:05,VALID,917.272,VALID,0,VALID,97.6178,VALID,0,VALID,18.9842,VALID,173,VALID,0,
2012-10-05, 02:37:05,VALID,917.287,VALID,0,VALID,97.6255,VALID,0,VALID,18.9647,VALID,174,VALID,0,
2012-10-05, 02:38:05,VALID,917.239,VALID,0,VALID,97.6407,VALID,0,VALID,18.9062,VALID,173,VALID,0,
2012-10-05, 02:39:05,VALID,917.236,VALID,0,VALID,97.6102,VALID,0,VALID,18.9062,VALID,173,VALID,0,
2012-10-05, 02:40:05,VALID,917.238,VALID,0,VALID,97.6102,VALID,0,VALID,18.9452,VALID,173,VALID,0,
2012-10-05, 02:41:05,VALID,917.254,VALID,0,VALID,97.6178,VALID,0,VALID,19.0037,VALID,173,VALID,0,
2012-10-05, 02:42:05,VALID,917.292,VALID,0,VALID,97.6331,VALID,0,VALID,19.0037,VALID,173,VALID,0,
2012-10-05, 02:43:05,VALID,917.27,VALID,0,VALID,97.6407,VALID,0,VALID,18.9647,VALID,173,VALID,0,
2012-10-05, 02:44:05,VALID,917.267,VALID,0,VALID,97.6178,VALID,0,VALID,18.9647,VALID,151,VALID,0,
2012-10-05, 02:45:05,VALID,917.271,VALID,0,VALID,97.6026,VALID,0,VALID,18.9452,VALID,146,VALID,0,
2012-10-05, 02:46:05,VALID,917.284,VALID,0,VALID,97.6331,VALID,0,VALID,18.9257,VALID,167,VALID,0,
2012-10-05, 02:47:05,VALID,917.332,VALID,0,VALID,97.6102,VALID,0,VALID,18.9647,VALID,167,VALID,0,
2012-10-05, 02:48:05,VALID,917.337,VALID,0,VALID,97.6407,VALID,0,VALID,18.9842,VALID,184,VALID,0,
2012-10-05, 02:49:05,VALID,917.345,VALID,0,VALID,97.6178,VALID,0,VALID,19.0023,VALID,168,VALID,0,
2012-10-05, 02:50:05,VALID,917.402,VALID,0,VALID,97.6255,VALID,0,VALID,19.0427,VALID,168,VALID,0,
2012-10-05, 02:51:05,VALID,917.426,VALID,0,VALID,97.6178,VALID,0,VALID,19.0413,VALID,170,VALID,0,
2012-10-05, 02:52:05,VALID,917.392,VALID,0,VALID,97.6407,VALID,0,VALID,19.0817,VALID,170,VALID,0,
2012-10-05, 02:53:05,VALID,917.394,VALID,0,VALID,97.6178,VALID,0,VALID,19.1012,VALID,170,VALID,0,
2012-10-05, 02:54:05,VALID,917.359,VALID,0,VALID,97.6178,VALID,0,VALID,19.0803,VALID,170,VALID,0,
2012-10-05, 02:55:05,VALID,917.343,VALID,0,VALID,97.6407,VALID,0,VALID,19.0608,VALID,170,VALID,0,
2012-10-05, 02:56:05,VALID,917.331,VALID,0,VALID,97.6102,VALID,0,VALID,19.1012,VALID,170,VALID,0,
2012-10-05, 02:57:05,VALID,917.352,VALID,0,VALID,97.6255,VALID,0,VALID,19.0817,VALID,170,VALID,0,
2012-10-05, 02:58:05,VALID,917.368,VALID,0,VALID,97.6178,VALID,0,VALID,19.0803,VALID,170,VALID,0,
2012-10-05, 02:59:05,VALID,917.39,VALID,0,VALID,97.6178,VALID,0,VALID,19.1207,VALID,170,VALID,0,
2012-10-05, 03:00:05,VALID,917.432,VALID,0,VALID,97.6255,VALID,0,VALID,19.0608,VALID,170,VALID,0,
2012-10-05, 03:01:05,VALID,917.458,VALID,0,VALID,97.6407,VALID,0,VALID,19.0817,VALID,170,VALID,0,
2012-10-05, 03:02:05,VALID,917.463,VALID,0,VALID,97.6407,VALID,0,VALID,19.0608,VALID,170,VALID,0,
2012-10-05, 03:03:05,VALID,917.481,VALID,0,VALID,97.6331,VALID,0,VALID,19.0817,VALID,170,VALID,0,
2012-10-05, 03:04:05,VALID,917.49,VALID,0,VALID,97.6407,VALID,0,VALID,19.0817,VALID,170,VALID,0,
2012-10-05, 03:05:05,VALID,917.503,VALID,0,VALID,97.6407,VALID,0,VALID,19.0817,VALID,170,VALID,0,
2012-10-05, 03:06:05,VALID,917.518,VALID,0,VALID,97.6407,VALID,0,VALID,19.0037,VALID,170,VALID,0,
2012-10-05, 03:07:05,VALID,917.489,VALID,0,VALID,97.6483,VALID,0,VALID,18.9452,VALID,170,VALID,0,
2012-10-05, 03:08:05,VALID,917.473,VALID,0,VALID,97.6255,VALID,0,VALID,18.9257,VALID,170,VALID,0,
2012-10-05, 03:09:05,VALID,917.492,VALID,0,VALID,97.6407,VALID,0,VALID,18.9048,VALID,170,VALID,0,
2012-10-05, 03:10:05,VALID,917.482,VALID,0,VALID,97.6178,VALID,0,VALID,18.8867,VALID,170,VALID,0,
2012-10-05, 03:11:05,VALID,917.533,VALID,0,VALID,97.6407,VALID,0.107441,VALID,18.8477,VALID,170,VALID,0,
2012-10-05, 03:12:05,VALID,917.541,VALID,0,VALID,97.6483,VALID,0,VALID,18.8672,VALID,170,VALID,0,
2012-10-05, 03:13:05,VALID,917.579,VALID,0,VALID,97.6407,VALID,0,VALID,18.8867,VALID,170,VALID,0,
2012-10-05, 03:14:05,VALID,917.605,VALID,0,VALID,97.6255,VALID,0,VALID,18.8867,VALID,170,VALID,0,
2012-10-05, 03:15:05,VALID,917.573,VALID,0,VALID,97.6483,VALID,0,VALID,18.8087,VALID,170,VALID,0,
2012-10-05, 03:16:05,VALID,917.623,VALID,0,VALID,97.6788,VALID,0,VALID,18.7697,VALID,170,VALID,0,
2012-10-05, 03:17:05,VALID,917.612,VALID,0,VALID,97.6636,VALID,0,VALID,18.8087,VALID,46,VALID,0,
2012-10-05, 03:18:05,VALID,917.595,VALID,0,VALID,97.6407,VALID,0,VALID,18.8087,VALID,46,VALID,0,
2012-10-05, 03:19:05,VALID,917.617,VALID,0,VALID,97.6712,VALID,0,VALID,18.7892,VALID,46,VALID,0,
2012-10-05, 03:20:05,VALID,917.625,VALID,0,VALID,97.6407,VALID,0,VALID,18.8282,VALID,46,VALID,0,
2012-10-05, 03:21:05,VALID,917.638,VALID,0,VALID,97.6712,VALID,0,VALID,18.8477,VALID,46,VALID,0,
2012-10-05, 03:22:05,VALID,917.625,VALID,0,VALID,97.6483,VALID,0,VALID,18.8477,VALID,46,VALID,0,
2012-10-05, 03:23:05,VALID,917.639,VALID,0,VALID,97.6636,VALID,0,VALID,18.8282,VALID,46,VALID,0,
2012-10-05, 03:24:05,VALID,917.651,VALID,0,VALID,97.656,VALID,0,VALID,18.8282,VALID,46,VALID,0,
2012-10-05, 03:25:05,VALID,917.653,VALID,0,VALID,97.6712,VALID,0,VALID,18.8282,VALID,46,VALID,0,
2012-10-05, 03:26:05,VALID,917.654,VALID,0,VALID,97.6636,VALID,0,VALID,18.8282,VALID,46,VALID,0,
2012-10-05, 03:27:05,VALID,917.66,VALID,0,VALID,97.6941,VALID,0,VALID,18.8477,VALID,46,VALID,0,
2012-10-05, 03:28:05,VALID,917.644,VALID,0,VALID,97.6788,VALID,0,VALID,18.8477,VALID,46,VALID,0,
2012-10-05, 03:29:05,VALID,917.678,VALID,0,VALID,97.6865,VALID,0,VALID,18.8282,VALID,46,VALID,0,
2012-10-05, 03:30:05,VALID,917.65,VALID,0,VALID,97.6636,VALID,0,VALID,18.8282,VALID,46,VALID,0,
2012-10-05, 03:31:05,VALID,917.643,VALID,0,VALID,97.6712,VALID,0,VALID,18.8282,VALID,46,VALID,0,
2012-10-05, 03:32:05,VALID,917.638,VALID,0,VALID,97.6712,VALID,0,VALID,18.8477,VALID,52,VALID,0,
2012-10-05, 03:33:05,VALID,917.646,VALID,0,VALID,97.6788,VALID,0,VALID,18.8463,VALID,63,VALID,0,
2012-10-05, 03:34:05,VALID,917.602,VALID,0,VALID,97.6636,VALID,0,VALID,18.8463,VALID,63,VALID,0,
2012-10-05, 03:35:05,VALID,917.577,VALID,0,VALID,97.6712,VALID,0,VALID,18.8463,VALID,63,VALID,0,
2012-10-05, 03:36:05,VALID,917.567,VALID,0,VALID,97.6865,VALID,0,VALID,18.8463,VALID,63,VALID,0,
2012-10-05, 03:37:05,VALID,917.55,VALID,0,VALID,97.6636,VALID,0.107441,VALID,18.8268,VALID,63,VALID,0,
2012-10-05, 03:38:05,VALID,917.532,VALID,0,VALID,97.6941,VALID,0,VALID,18.8477,VALID,63,VALID,0,
2012-10-05, 03:39:05,VALID,917.484,VALID,0,VALID,97.6941,VALID,0,VALID,18.8268,VALID,63,VALID,0,
2012-10-05, 03:40:05,VALID,917.495,VALID,0,VALID,97.6865,VALID,0,VALID,18.8463,VALID,63,VALID,0,
2012-10-05, 03:41:05,VALID,917.506,VALID,0,VALID,97.6788,VALID,0,VALID,18.8463,VALID,358,VALID,0,
2012-10-05, 03:42:05,VALID,917.505,VALID,0,VALID,97.6865,VALID,0,VALID,18.8853,VALID,358,VALID,0,
2012-10-05, 03:43:05,VALID,917.522,VALID,0,VALID,97.6941,VALID,0,VALID,18.9243,VALID,358,VALID,0,
2012-10-05, 03:44:05,VALID,917.535,VALID,0,VALID,97.6636,VALID,0,VALID,18.9438,VALID,358,VALID,0,
2012-10-05, 03:45:05,VALID,917.565,VALID,0,VALID,97.6712,VALID,0,VALID,18.9647,VALID,358,VALID,0,
2012-10-05, 03:46:05,VALID,917.537,VALID,0,VALID,97.6865,VALID,0,VALID,18.9452,VALID,358,VALID,0,
2012-10-05, 03:47:05,VALID,917.506,VALID,0,VALID,97.6712,VALID,0,VALID,18.9452,VALID,358,VALID,0,
2012-10-05, 03:48:05,VALID,917.473,VALID,0,VALID,97.6788,VALID,0,VALID,18.9452,VALID,358,VALID,0,
2012-10-05, 03:49:05,VALID,917.454,VALID,0,VALID,97.6788,VALID,0,VALID,18.9257,VALID,358,VALID,0,
2012-10-05, 03:50:05,VALID,917.43,VALID,0,VALID,97.6788,VALID,0,VALID,18.9647,VALID,358,VALID,0,
2012-10-05, 03:51:05,VALID,917.465,VALID,0,VALID,97.6788,VALID,0,VALID,18.9452,VALID,358,VALID,0,
2012-10-05, 03:52:05,VALID,917.432,VALID,0,VALID,97.6865,VALID,0,VALID,18.9662,VALID,358,VALID,0,
2012-10-05, 03:53:04,VALID,917.389,VALID,0,VALID,97.6865,VALID,0,VALID,18.9647,VALID,358,VALID,0,
2012-10-05, 03:54:04,VALID,917.404,VALID,0,VALID,97.6865,VALID,0,VALID,18.9842,VALID,358,VALID,0,
2012-10-05, 03:55:04,VALID,917.366,VALID,0,VALID,97.6788,VALID,0,VALID,18.9857,VALID,358,VALID,0,
2012-10-05, 03:56:04,VALID,917.307,VALID,0,VALID,97.6636,VALID,0,VALID,18.9842,VALID,358,VALID,0,
2012-10-05, 03:57:04,VALID,917.29,VALID,0,VALID,97.6788,VALID,0,VALID,18.9452,VALID,33,VALID,0,
2012-10-05, 03:58:04,VALID,917.302,VALID,0,VALID,97.6788,VALID,0,VALID,18.9257,VALID,33,VALID,0,
2012-10-05, 03:59:04,VALID,917.327,VALID,0,VALID,97.6865,VALID,0,VALID,18.9062,VALID,33,VALID,0,